[[{"header":{"parameterUnit":"m.s-1","parameterCategory":1,"la1":30.2991,"la2":30.254,"lo1":-89.0895,"lo2":-89.0444,"dy":0.0017,"dx":0.0017,"nx":28,"ny":28,"refTime":"2025-03-21T21:00:00:Z","depth":0,"parameterNumber":2,"parameterNumberName":"U-component_of_WINDS"},"data":[0,0,0,0,0,0,0,0,0,0,0,0,0,0,0,0,0,0,0,0,0,0,0,0,0,0,0,0,0,0,0,0,0,0,0,0,0,0,0,0,0,0,0,0,0,0,0,0,0,0,0,0,0,0,0,0,0,0,0.4749,0.475,0,0.4872,0.4873,0.4874,0.4914,0.4914,0.4913,0.4913,0.5043,0.5047,0.505,0,0,0,0,0,0,0,0,0,0,0,0,0,0.4552,0.4555,0.4748,0.475,0.4752,0.4871,0.4873,0.4875,0.4914,0.4914,0.4913,0.4912,0.5041,0.5046,0.5051,0,0,0,0,0,0,0,0,0,0,0,0,0,0.4652,0.4556,0.4748,0.4786,0.479,0.4871,0.4873,0.4875,0.4915,0.4914,0.4913,0.4912,0.504,0.5046,0.5051,0.5105,0,0,0.507,0.5072,0,0,0,0,0,0,0,0,0.4647,0.466,0.4779,0.4783,0.4788,0.4877,0.4851,0.4952,0.4915,0.4867,0.4913,0.4912,0.4988,0.4999,0.5024,0.5111,0.5117,0.507,0.5074,0.5076,0.5078,0,0,0,0,0,0,0,0.464,0.4655,0.4797,0.478,0.4786,0.4798,0.4811,0.4871,0.4931,0.4872,0.4875,0.4889,0.4991,0.5018,0.5027,0.5119,0.507,0.5075,0.5079,0.5081,0.5257,0.5258,0,0,0,0,0,0,0.4626,0.4648,0.4793,0.4801,0.4714,0.4802,0.4817,0.4849,0.4931,0.4942,0.4889,0.489,0.5008,0.502,0.5032,0.51,0.5076,0.5082,0.5085,0.5256,0.5258,0.5259,0,0,0,0,0,0,0.4621,0.4638,0.4788,0.4726,0.4746,0.4806,0.4842,0.4852,0.4879,0.4944,0.4955,0.4905,0.5008,0.5023,0.5086,0.5105,0.5085,0.509,0.5255,0.5257,0.5258,0.5237,0,0,0,0,0,0,0.4616,0.4636,0.4656,0.4726,0.4749,0.484,0.4843,0.4855,0.4889,0.4891,0.4962,0.4973,0.5008,0.5077,0.5092,0.5113,0.5095,0.5254,0.5256,0.5258,0.5236,0.5237,0.5238,0,0,0,0,0,0.4608,0.4646,0.4657,0.4675,0.4775,0.4841,0.4854,0.4893,0.489,0.4911,0.4953,0.4971,0.51,0.5083,0.5101,0.5123,0.5253,0.5255,0.5257,0.5235,0.5237,0.5238,0,0,0,0,0,0,0.4579,0.4656,0.4669,0.473,0.4778,0.4847,0.4875,0.4893,0.4944,0.4945,0.4992,0.5008,0.5067,0.5102,0.5081,0.518,0.5178,0.5184,0.5155,0.5157,0.5158,0.5149,0.51,0,0,0,0,0,0.4579,0.4625,0.4691,0.4738,0.4762,0.4814,0.4844,0.487,0.4922,0.4943,0.499,0.5041,0.5094,0.5127,0.5179,0.5241,0.5258,0.5266,0.5267,0.5267,0.5272,0.5308,0.5312,0.5267,0.5267,0.5267,0,0,0.4581,0.4629,0.4655,0.4734,0.4774,0.4822,0.4831,0.4881,0.4917,0.4952,0.5013,0.505,0.511,0.5173,0.5203,0.5204,0.5288,0.5271,0.5271,0.5275,0.5311,0.5315,0.5319,0.5268,0.5268,0.5268,0,0,0.4608,0.4649,0.4693,0.4733,0.4794,0.4828,0.4839,0.4905,0.493,0.4993,0.5019,0.5064,0.5153,0.5195,0.5228,0.5272,0.529,0.5288,0.5294,0.5328,0.5332,0.5335,0.5351,0.5356,0.5292,0.5292,0.5292,0,0.4603,0.4674,0.4714,0.4762,0.4796,0.4828,0.4874,0.4912,0.4987,0.501,0.5009,0.5122,0.5165,0.5238,0.5249,0.5274,0.5289,0.5279,0.5328,0.5332,0.5336,0.5351,0.5357,0.5291,0.5291,0.5291,0.5291,0,0.4665,0.4714,0.4743,0.4813,0.485,0.4897,0.4945,0.4978,0.5001,0.5036,0.51,0.5153,0.5216,0.5235,0.5259,0.5312,0.5311,0.5318,0.5317,0.5339,0.5354,0.536,0.529,0.529,0.5291,0.5291,0,0,0.4676,0.4768,0.4777,0.481,0.4879,0.4919,0.4968,0.5028,0.5056,0.5107,0.515,0.5225,0.5232,0.527,0.5298,0.5328,0.5359,0.5333,0.5335,0.5335,0.5422,0.5415,0.5421,0.5372,0.5373,0.5374,0.5417,0,0.4712,0.4799,0.4836,0.4907,0.4953,0.4985,0.5028,0.5076,0.511,0.5155,0.5194,0.5246,0.5252,0.5275,0.5306,0.5349,0.5377,0.5346,0.5413,0.5415,0.5396,0.5429,0.5423,0.546,0.5423,0.5424,0.5425,0,0.4766,0.4815,0.489,0.4954,0.4975,0.5012,0.5071,0.5114,0.5169,0.5192,0.5234,0.5261,0.5315,0.531,0.5385,0.5363,0.5393,0.5418,0.542,0.5428,0.5421,0.5438,0.5473,0.5479,0.5435,0.5434,0.5433,0,0.4766,0.4852,0.4908,0.4935,0.5011,0.5037,0.507,0.5124,0.5158,0.521,0.5233,0.5291,0.5323,0.5368,0.541,0.5402,0.5481,0.548,0.5502,0.5501,0.5517,0.5516,0.5558,0.5537,0.5537,0.5536,0.5536,0,0.4803,0.4847,0.4909,0.4944,0.4995,0.5038,0.5088,0.5123,0.5172,0.5214,0.5246,0.5286,0.5339,0.5386,0.5419,0.5477,0.5491,0.5512,0.552,0.5509,0.5506,0.5529,0.5527,0.5538,0.5538,0.5537,0.5537,0,0.4812,0.4855,0.4918,0.4985,0.5003,0.5037,0.5095,0.513,0.5166,0.522,0.5235,0.5292,0.5349,0.5395,0.547,0.5493,0.5553,0.5562,0.5533,0.5537,0.5557,0.5555,0.5615,0.5626,0.5598,0.5598,0.5598,0,0.4832,0.4866,0.4937,0.4967,0.4999,0.5048,0.5082,0.5127,0.5162,0.5227,0.5255,0.5314,0.5363,0.5453,0.5501,0.5559,0.557,0.5587,0.5579,0.5567,0.557,0.5568,0.5571,0.5588,0.5588,0.5588,0.5588,0,0.4862,0.4882,0.493,0.4986,0.5026,0.5073,0.512,0.5143,0.5196,0.5234,0.5292,0.533,0.5406,0.5464,0.5527,0.5563,0.5585,0.5591,0.5599,0.5587,0.5569,0.5579,0.5535,0.5589,0.5589,0.5589,0.5589,0.5589,0.4878,0.491,0.4964,0.5017,0.5057,0.51,0.5137,0.5177,0.5225,0.5289,0.5313,0.5372,0.5428,0.5514,0.555,0.5598,0.5601,0.5613,0.5616,0.5618,0.5616,0.5561,0.561,0.561,0.561,0.561,0.561,0,0.491,0.4946,0.4994,0.5059,0.5101,0.5116,0.517,0.5204,0.5255,0.5305,0.5352,0.5419,0.5475,0.5529,0.5588,0.5616,0.5628,0.5631,0.5629,0.5637,0.5611,0.5598,0.562,0.562,0.562,0.562,0.562,0.562,0.4931,0.4987,0.5013,0.5089,0.5126,0.5183,0.5213,0.5253,0.5293,0.5365,0.5412,0.5446,0.5497,0.5561,0.5614,0.5628,0.5649,0.5649,0.5666,0.564,0.5639,0.5637,0.5625,0.5653,0.5653,0.5688,0.5688,0.5688]},{"header":{"parameterUnit":"m.s-1","parameterCategory":1,"la1":30.2991,"la2":30.254,"lo1":-89.0895,"lo2":-89.0444,"dy":0.0017,"dx":0.0017,"nx":28,"ny":28,"refTime":"2025-03-21T21:00:00:Z","depth":0,"parameterNumber":3,"parameterNumberName":"V-component_of_WINDS"},"data":[0,0,0,0,0,0,0,0,0,0,0,0,0,0,0,0,0,0,0,0,0,0,0,0,0,0,0,0,0,0,0,0,0,0,0,0,0,0,0,0,0,0,0,0,0,0,0,0,0,0,0,0,0,0,0,0,0,0,1.3333,1.3333,0,1.3297,1.3297,1.3296,1.3264,1.3263,1.3263,1.3262,1.3224,1.3224,1.3223,0,0,0,0,0,0,0,0,0,0,0,0,0,1.337,1.3369,1.3333,1.3333,1.3332,1.3297,1.3297,1.3296,1.3264,1.3263,1.3263,1.3262,1.3224,1.3224,1.3223,0,0,0,0,0,0,0,0,0,0,0,0,0,1.3346,1.3369,1.3333,1.3312,1.3309,1.3297,1.3297,1.3296,1.3264,1.3263,1.3263,1.3262,1.3225,1.3224,1.3223,1.3229,0,0,1.322,1.3219,0,0,0,0,0,0,0,0,1.3347,1.3344,1.3315,1.3313,1.3311,1.3284,1.3296,1.3273,1.3264,1.3281,1.3262,1.3262,1.3245,1.3242,1.3236,1.3227,1.3225,1.322,1.3219,1.3219,1.3218,0,0,0,0,0,0,0,1.3349,1.3346,1.3319,1.3315,1.3312,1.3303,1.3299,1.3291,1.3266,1.3279,1.3277,1.3273,1.3243,1.3238,1.3235,1.3225,1.322,1.3219,1.3218,1.3218,1.3214,1.3215,0,0,0,0,0,0,1.3354,1.3347,1.332,1.3318,1.3328,1.3303,1.3298,1.3293,1.3267,1.3262,1.3274,1.3272,1.3239,1.3237,1.3234,1.3236,1.3219,1.3218,1.3217,1.3214,1.3214,1.3215,0,0,0,0,0,0,1.3355,1.3352,1.3321,1.3332,1.3327,1.3303,1.3297,1.3293,1.3287,1.3262,1.3257,1.3273,1.3239,1.3235,1.3229,1.3235,1.3217,1.3216,1.3213,1.3214,1.3215,1.3243,0,0,0,0,0,0,1.3356,1.3353,1.3355,1.3332,1.3327,1.3319,1.3298,1.3293,1.3286,1.3283,1.326,1.3256,1.3238,1.3231,1.3228,1.3233,1.3216,1.3212,1.3213,1.3214,1.3242,1.3245,1.3248,0,0,0,0,0,1.3358,1.3365,1.3356,1.3353,1.333,1.3319,1.3316,1.3296,1.3286,1.3288,1.3272,1.3256,1.3235,1.3231,1.3228,1.3232,1.3212,1.3213,1.3214,1.3241,1.3244,1.3248,0,0,0,0,0,0,1.339,1.3362,1.3351,1.3352,1.3338,1.3314,1.3316,1.3301,1.329,1.3288,1.3263,1.3258,1.3254,1.3243,1.3239,1.3234,1.3221,1.3222,1.3242,1.3246,1.3249,1.3251,1.3215,0,0,0,0,0,1.3397,1.3392,1.3367,1.337,1.3364,1.3341,1.3335,1.3321,1.3306,1.33,1.3283,1.3268,1.3257,1.3251,1.324,1.324,1.3233,1.3241,1.3244,1.3247,1.3247,1.3243,1.3246,1.3218,1.3218,1.3218,0,0,1.3412,1.3396,1.3394,1.3376,1.3364,1.3357,1.3336,1.3331,1.3325,1.3299,1.3292,1.3279,1.326,1.3256,1.3254,1.3247,1.3253,1.3248,1.325,1.3249,1.3245,1.3247,1.325,1.3219,1.3219,1.3219,0,0,1.3435,1.3423,1.3423,1.3411,1.3392,1.3377,1.3377,1.3354,1.3344,1.3337,1.3316,1.3309,1.3292,1.3279,1.327,1.3285,1.327,1.3282,1.3297,1.3294,1.3296,1.3298,1.3301,1.3303,1.3283,1.3283,1.3283,0,1.3455,1.3445,1.3425,1.3419,1.3411,1.3387,1.3385,1.3374,1.3353,1.3347,1.3339,1.3316,1.3302,1.3293,1.3297,1.3291,1.3289,1.3285,1.3298,1.3299,1.3301,1.3303,1.3305,1.3285,1.3284,1.3284,1.3284,0,1.347,1.3463,1.3465,1.3445,1.3437,1.3434,1.3411,1.3405,1.3391,1.3375,1.3367,1.3349,1.3333,1.333,1.3317,1.3319,1.3314,1.3303,1.3288,1.3305,1.3307,1.3308,1.3287,1.3286,1.3286,1.3285,0,0,1.3513,1.348,1.3481,1.347,1.3447,1.3441,1.3436,1.342,1.3414,1.34,1.3393,1.3379,1.3367,1.3357,1.3341,1.3338,1.3349,1.3326,1.3325,1.333,1.3347,1.3355,1.3357,1.3338,1.3339,1.3339,1.3348,0,1.353,1.352,1.35,1.3496,1.3488,1.3464,1.3459,1.3443,1.3428,1.3418,1.3401,1.339,1.3377,1.337,1.3367,1.3348,1.3352,1.3348,1.333,1.333,1.3335,1.3358,1.3367,1.3377,1.3349,1.3349,1.3349,0,1.355,1.3536,1.3531,1.3506,1.3502,1.3498,1.3481,1.3472,1.3453,1.3442,1.343,1.3413,1.3404,1.3392,1.3378,1.3375,1.3367,1.3357,1.3356,1.3353,1.334,1.3354,1.338,1.3381,1.3351,1.3351,1.3351,0,1.3578,1.3559,1.3553,1.3545,1.3517,1.3514,1.3502,1.3482,1.3474,1.3458,1.3452,1.3436,1.3426,1.3413,1.3391,1.3385,1.3379,1.3365,1.3368,1.3368,1.3367,1.3367,1.339,1.3364,1.3364,1.3364,1.3364,0,1.3599,1.3596,1.3565,1.3561,1.3556,1.3533,1.3529,1.3514,1.3497,1.3488,1.3467,1.3459,1.3431,1.3419,1.3402,1.3391,1.3388,1.3378,1.3373,1.3379,1.338,1.3372,1.337,1.3364,1.3364,1.3364,1.3364,0,1.363,1.361,1.3601,1.3574,1.3568,1.3565,1.3542,1.3536,1.352,1.3509,1.3505,1.3479,1.3464,1.3441,1.3419,1.3407,1.3399,1.3392,1.3405,1.3402,1.3405,1.3405,1.3424,1.3424,1.3399,1.3399,1.3399,0,1.3644,1.3641,1.3614,1.3607,1.3596,1.3585,1.3576,1.3552,1.3543,1.352,1.3516,1.35,1.3485,1.3462,1.344,1.3422,1.3414,1.3421,1.3411,1.3416,1.3411,1.3411,1.341,1.3423,1.3424,1.3424,1.3424,0,1.367,1.3659,1.3647,1.3631,1.362,1.3606,1.3591,1.3586,1.3559,1.3549,1.3534,1.3522,1.3499,1.3482,1.3461,1.3447,1.343,1.3428,1.3427,1.3433,1.344,1.3434,1.341,1.3427,1.3427,1.3427,1.3427,1.3427,1.3691,1.3687,1.3667,1.3653,1.3639,1.3625,1.3618,1.36,1.3587,1.3567,1.3554,1.3538,1.3517,1.3487,1.3474,1.346,1.3453,1.3453,1.3453,1.3452,1.3454,1.3443,1.3457,1.3456,1.3456,1.3456,1.3456,0,1.3714,1.37,1.3688,1.3667,1.3656,1.3642,1.3624,1.3615,1.3602,1.3584,1.357,1.3551,1.3534,1.351,1.3491,1.3484,1.3476,1.348,1.348,1.3476,1.3462,1.3464,1.3487,1.3487,1.3487,1.3487,1.3487,1.3487,1.3725,1.3716,1.3703,1.3686,1.3671,1.3657,1.3647,1.3633,1.3619,1.3599,1.3584,1.3569,1.3548,1.3527,1.351,1.3503,1.3496,1.3502,1.3493,1.348,1.3477,1.3475,1.3476,1.3502,1.3502,1.3508,1.3508,1.3508]}]]